TimePST,TemperatureF,Dew PointF,Humidity,Sea Level PressureIn,VisibilityMPH,Wind Direction,Wind SpeedMPH,Gust SpeedMPH,PrecipitationIn,Events,Conditions,WindDirDegrees,DateUTC
12:56 AM,42.1,12.9,31,30.21,10.0,ESE,16.1,26.5,N/A,,Clear,110,2013-01-19 08:56:00
1:56 AM,41.0,14.0,33,30.22,10.0,ESE,11.5,20.7,N/A,,Clear,110,2013-01-19 09:56:00
2:56 AM,39.0,15.1,38,30.23,10.0,ESE,12.7,23.0,N/A,,Clear,110,2013-01-19 10:56:00
3:56 AM,39.9,12.9,33,30.22,10.0,ESE,16.1,25.3,N/A,,Clear,120,2013-01-19 11:56:00
4:56 AM,39.9,12.0,32,30.22,10.0,ESE,18.4,26.5,N/A,,Clear,120,2013-01-19 12:56:00
5:56 AM,42.1,10.0,27,30.22,10.0,ESE,18.4,27.6,N/A,,Clear,120,2013-01-19 13:56:00
6:56 AM,41.0,10.0,28,30.23,10.0,ESE,19.6,26.5,N/A,,Clear,120,2013-01-19 14:56:00
7:56 AM,41.0,10.9,29,30.23,10.0,ESE,18.4,28.8,N/A,,Clear,120,2013-01-19 15:56:00
8:56 AM,44.1,10.9,26,30.24,10.0,ESE,18.4,27.6,N/A,,Clear,120,2013-01-19 16:56:00
9:56 AM,45.0,12.0,26,30.27,10.0,ESE,18.4,26.5,N/A,,Clear,120,2013-01-19 17:56:00
10:56 AM,48.0,12.0,24,30.26,10.0,ESE,17.3,-,N/A,,Clear,120,2013-01-19 18:56:00
11:56 AM,48.0,10.9,22,30.25,10.0,ESE,17.3,21.9,N/A,,Clear,120,2013-01-19 19:56:00
12:56 PM,50.0,10.0,20,30.25,10.0,ESE,11.5,19.6,N/A,,Clear,120,2013-01-19 20:56:00
1:56 PM,51.1,9.0,18,30.23,10.0,SE,11.5,-,N/A,,Clear,130,2013-01-19 21:56:00
2:56 PM,52.0,8.1,17,30.23,10.0,ESE,9.2,-,N/A,,Clear,120,2013-01-19 22:56:00
3:56 PM,52.0,7.0,16,30.23,10.0,ESE,6.9,-,N/A,,Clear,120,2013-01-19 23:56:00
4:56 PM,50.0,6.1,17,30.24,10.0,ESE,6.9,-,N/A,,Clear,120,2013-01-20 00:56:00
5:56 PM,48.9,7.0,18,30.24,10.0,ESE,9.2,-,N/A,,Clear,110,2013-01-20 01:56:00
6:56 PM,48.0,9.0,21,30.25,10.0,ESE,6.9,-,N/A,,Clear,120,2013-01-20 02:56:00
7:56 PM,46.9,10.9,23,30.26,10.0,ESE,9.2,-,N/A,,Clear,120,2013-01-20 03:56:00
8:56 PM,45.0,10.9,25,30.25,10.0,ESE,10.4,-,N/A,,Clear,110,2013-01-20 04:56:00
9:56 PM,45.0,10.9,25,30.26,10.0,ESE,11.5,-,N/A,,Clear,110,2013-01-20 05:56:00
10:56 PM,45.0,10.9,25,30.25,10.0,ESE,16.1,-,N/A,,Clear,110,2013-01-20 06:56:00
11:56 PM,44.1,10.9,26,30.26,10.0,ESE,16.1,-,N/A,,Clear,110,2013-01-20 07:56:00